EZS25WG LMML-LSGG

Flight info

Callsign EZS25WG
Flight time N/A
Altitude 38000
Route GZO M622 SOPIR DCT MABOX DCT ADEXI DCT RONAB DCT KONER DCT AOSTA L615 BANKO
Aircraft A320/M-SDE2E3FGHIJ1RWXYZ/LB1

Departure

Time N/A
Airport Malta International Airport (LMML)

Arrival

Time 2026-05-04 13:56
Airport Geneva International Airport (LSGG)
Time Latitude Longitude Altitude Speed Heading
2026-05-04 13:21 44.08032 9.00104 38118 ft 426 kts 321°
2026-05-04 13:21 44.12927 8.95553 38111 ft 427 kts 321°
2026-05-04 13:22 44.17864 8.90954 38109 ft 427 kts 321°
2026-05-04 13:22 44.22801 8.86333 38114 ft 428 kts 320°
2026-05-04 13:23 44.27746 8.81696 38129 ft 428 kts 321°
2026-05-04 13:23 44.32693 8.77051 38143 ft 429 kts 321°
2026-05-04 13:24 44.37650 8.72396 38137 ft 430 kts 321°
2026-05-04 13:24 44.42611 8.67726 38152 ft 430 kts 320°
2026-05-04 13:25 44.50050 8.60699 38133 ft 431 kts 320°
2026-05-04 13:25 44.55009 8.56004 38125 ft 432 kts 320°
2026-05-04 13:26 44.59934 8.51335 38120 ft 431 kts 320°
2026-05-04 13:26 44.64904 8.46607 38115 ft 432 kts 320°
2026-05-04 13:27 44.69870 8.41866 38121 ft 432 kts 320°
2026-05-04 13:27 44.74840 8.37111 38118 ft 432 kts 320°
2026-05-04 13:28 44.79784 8.32377 38134 ft 433 kts 320°
2026-05-04 13:28 44.84761 8.27600 38126 ft 433 kts 320°
2026-05-04 13:29 44.89733 8.22817 38134 ft 433 kts 320°
2026-05-04 13:29 44.94709 8.18026 38120 ft 433 kts 320°
2026-05-04 13:30 44.99691 8.13217 38118 ft 434 kts 320°
2026-05-04 13:30 45.04678 8.08405 38125 ft 434 kts 320°
2026-05-04 13:31 45.09668 8.03573 38142 ft 434 kts 319°
2026-05-04 13:31 45.14650 7.98723 38142 ft 435 kts 319°
2026-05-04 13:32 45.19634 7.93859 38138 ft 435 kts 319°
2026-05-04 13:32 45.24610 7.88993 38142 ft 436 kts 319°
2026-05-04 13:33 45.29611 7.84109 38142 ft 436 kts 320°
2026-05-04 13:33 45.34560 7.79264 38144 ft 436 kts 320°
2026-05-04 13:34 45.39554 7.74360 38159 ft 437 kts 319°
2026-05-04 13:34 45.44556 7.69436 38142 ft 438 kts 319°
2026-05-04 13:35 45.52065 7.62028 38132 ft 438 kts 319°
2026-05-04 13:36 45.57091 7.57054 38154 ft 441 kts 320°
2026-05-04 13:36 45.62093 7.52094 38148 ft 440 kts 319°
2026-05-04 13:36 45.64612 7.49587 37959 ft 442 kts 319°
2026-05-04 13:37 45.67131 7.47075 37666 ft 442 kts 320°
2026-05-04 13:37 45.69649 7.44561 37377 ft 442 kts 320°
2026-05-04 13:37 45.72171 7.42043 36651 ft 443 kts 320°
2026-05-04 13:37 45.73845 7.40281 36167 ft 441 kts 315°
2026-05-04 13:38 45.76669 7.36174 35127 ft 436 kts 302°
2026-05-04 13:38 45.78340 7.32579 34345 ft 433 kts 294°
2026-05-04 13:38 45.79602 7.28665 33375 ft 433 kts 285°
2026-05-04 13:38 45.80412 7.24524 32487 ft 430 kts 276°
2026-05-04 13:39 45.80814 7.20273 31545 ft 433 kts 272°
2026-05-04 13:39 45.81159 7.15959 30574 ft 438 kts 272°
2026-05-04 13:39 45.81514 7.11594 29451 ft 445 kts 275°
2026-05-04 13:39 45.82203 7.07237 28352 ft 453 kts 284°
2026-05-04 13:40 45.83391 7.03001 27117 ft 464 kts 293°
2026-05-04 13:40 45.85082 6.99001 25891 ft 474 kts 301°
2026-05-04 13:40 45.86961 6.95123 25082 ft 471 kts 301°
2026-05-04 13:40 45.88810 6.91280 24210 ft 465 kts 301°
2026-05-04 13:41 45.90632 6.87457 23332 ft 463 kts 300°
2026-05-04 13:41 45.92430 6.83650 22512 ft 458 kts 300°
2026-05-04 13:41 45.94205 6.79879 21735 ft 453 kts 300°
2026-05-04 13:42 45.97689 6.72460 20316 ft 443 kts 300°
2026-05-04 13:42 45.99395 6.68792 19643 ft 438 kts 300°
2026-05-04 13:42 46.01073 6.65167 18975 ft 434 kts 299°
2026-05-04 13:42 46.02731 6.61566 18349 ft 430 kts 299°
2026-05-04 13:43 46.04358 6.58025 17702 ft 422 kts 299°
2026-05-04 13:43 46.05940 6.54596 17159 ft 412 kts 300°
2026-05-04 13:43 46.07548 6.51157 16616 ft 405 kts 300°
2026-05-04 13:43 46.09102 6.47874 16109 ft 399 kts 300°
2026-05-04 13:44 46.10646 6.44629 15940 ft 385 kts 300°
2026-05-04 13:44 46.12097 6.41581 15817 ft 372 kts 300°
2026-05-04 13:44 46.13532 6.38559 15695 ft 358 kts 300°
2026-05-04 13:44 46.14877 6.35722 15593 ft 346 kts 300°
2026-05-04 13:45 46.16292 6.32980 15471 ft 338 kts 309°
2026-05-04 13:45 46.18146 6.30961 15351 ft 337 kts 330°
2026-05-04 13:45 46.20400 6.30092 15153 ft 339 kts 355°
2026-05-04 13:45 46.22680 6.30634 14873 ft 341 kts 22°
2026-05-04 13:46 46.24631 6.32515 14556 ft 338 kts 45°
2026-05-04 13:46 46.26282 6.34935 14192 ft 338 kts 47°
2026-05-04 13:46 46.27919 6.37369 13860 ft 337 kts 47°
2026-05-04 13:46 46.29537 6.39774 13319 ft 332 kts 46°
2026-05-04 13:47 46.31139 6.42152 12640 ft 329 kts 46°
2026-05-04 13:47 46.32729 6.44512 12030 ft 326 kts 46°
2026-05-04 13:47 46.34308 6.46851 11434 ft 322 kts 46°
2026-05-04 13:47 46.35832 6.49096 11272 ft 303 kts 46°
2026-05-04 13:48 46.37252 6.51196 11047 ft 290 kts 47°
2026-05-04 13:48 46.38658 6.53296 10605 ft 284 kts 47°
2026-05-04 13:48 46.40156 6.55183 9773 ft 293 kts 30°
2026-05-04 13:48 46.42108 6.56121 8861 ft 299 kts
2026-05-04 13:49 46.44131 6.55800 8077 ft 298 kts 338°
2026-05-04 13:49 46.45844 6.54304 7765 ft 278 kts 313°
2026-05-04 13:49 46.46946 6.52181 7657 ft 251 kts 291°
2026-05-04 13:49 46.47409 6.49836 7574 ft 237 kts 271°
2026-05-04 13:50 46.47298 6.47497 7516 ft 230 kts 253°
2026-05-04 13:50 46.46797 6.45314 7403 ft 228 kts 239°
2026-05-04 13:50 46.45870 6.43498 7181 ft 223 kts 223°
2026-05-04 13:50 46.44790 6.41901 6906 ft 221 kts 223°
2026-05-04 13:51 46.43725 6.40320 6635 ft 218 kts 223°
2026-05-04 13:51 46.42672 6.38756 6351 ft 215 kts 223°
2026-05-04 13:51 46.41630 6.37209 6060 ft 214 kts 223°
2026-05-04 13:51 46.40592 6.35670 5775 ft 213 kts 223°
2026-05-04 13:52 46.38523 6.32604 5212 ft 215 kts 224°
2026-05-04 13:52 46.37475 6.31053 4932 ft 215 kts 224°
2026-05-04 13:52 46.36426 6.29501 4641 ft 216 kts 224°
2026-05-04 13:53 46.35369 6.27937 4342 ft 219 kts 224°
2026-05-04 13:53 46.34314 6.26379 4054 ft 222 kts 225°
2026-05-04 13:53 46.33236 6.24786 3753 ft 219 kts 225°
2026-05-04 13:54 46.31192 6.21769 3203 ft 202 kts 225°
2026-05-04 13:54 46.30257 6.20391 2953 ft 191 kts 225°
2026-05-04 13:54 46.28558 6.17888 2438 ft 162 kts 226°
2026-05-04 13:55 46.27843 6.16837 2212 ft 148 kts 227°
2026-05-04 13:55 46.26467 6.14810 1829 ft 138 kts 227°
2026-05-04 13:55 46.25820 6.13858 1648 ft 137 kts 226°
2026-05-04 13:56 46.25153 6.12878 1459 ft 136 kts 227°
2026-05-04 13:56 46.24513 6.11937 1373 ft 121 kts 226°
2026-05-04 13:56 46.23939 6.11101 1378 ft 25 kts 222°
2026-05-04 13:57 46.23802 6.11080 1377 ft 9 kts 175°
2026-05-04 13:57 46.23773 6.11085 1381 ft 0 kts 173°
2026-05-04 13:58 46.23748 6.11089 1384 ft 1 kts 174°
2026-05-04 13:58 46.23728 6.11086 1385 ft 11 kts 194°
2026-05-04 13:59 46.23644 6.10993 1387 ft 16 kts 227°
2026-05-04 13:59 46.23576 6.10889 1389 ft 14 kts 226°
2026-05-04 13:59 46.23462 6.10720 1390 ft 15 kts 224°
2026-05-04 14:00 46.23404 6.10723 1402 ft 14 kts 139°
2026-05-04 14:00 46.23276 6.10784 1396 ft 8 kts 195°
2026-05-04 14:00 46.23222 6.10741 1398 ft 13 kts 223°
2026-05-04 14:01 46.23173 6.10708 1397 ft 4 kts 129°
2026-05-04 14:01 46.23164 6.10727 1398 ft 1 kts 126°
2026-05-04 14:01 46.23153 6.10744 1396 ft 0 kts 136°